Location: Benque
(43.2594°N, 0.9178°E)
Time: 17:15:38
(UTC+00:00)

Cosmos 2218 Rocket - Pass Details

Date: 24 January 2020
Orbit: 956 x 1006 km, 82.9° (Epoch: 21 February)

Event Time Altitude Azimuth Distance (km) Brightness Sun altitude
Rises 17:54:33 0° 172° (S) 3,688 7.1 -10.6°
Reaches altitude 10° 17:57:06 10° 169° (SSE) 2,750 6.4 -11.0°
Maximum altitude 18:03:15 57° 92° (E) 1,164 4.1 -12.1°
Drops below altitude 10° 18:09:31 10° 16° (NNE) 2,789 6.1 -13.2°
Sets 18:12:06 0° 12° (NNE) 3,745 6.8 -13.7°
